TimeCST,TemperatureF,Dew PointF,Humidity,Sea Level PressureIn,VisibilityMPH,Wind Direction,Wind SpeedMPH,Gust SpeedMPH,PrecipitationIn,Events,Conditions,WindDirDegrees,DateUTC
12:56 AM,37.9,27.0,65,30.30,10.0,North,5.8,-,N/A,,Clear,10,2013-01-04 06:56:00
1:56 AM,37.0,27.0,67,30.30,10.0,NNE,3.5,-,N/A,,Clear,20,2013-01-04 07:56:00
2:56 AM,37.0,27.0,67,30.30,10.0,North,3.5,-,N/A,,Clear,350,2013-01-04 08:56:00
3:56 AM,37.0,26.1,65,30.30,10.0,North,5.8,-,N/A,,Clear,360,2013-01-04 09:56:00
4:56 AM,36.0,26.1,67,30.31,10.0,North,4.6,-,N/A,,Clear,360,2013-01-04 10:56:00
5:56 AM,35.1,26.1,70,30.31,9.0,North,5.8,-,N/A,,Scattered Clouds,10,2013-01-04 11:56:00
6:56 AM,35.1,26.1,70,30.35,8.0,North,3.5,-,N/A,,Mostly Cloudy,360,2013-01-04 12:56:00
7:56 AM,37.0,27.0,67,30.37,9.0,North,4.6,-,N/A,,Mostly Cloudy,360,2013-01-04 13:56:00
8:56 AM,41.0,28.9,62,30.38,10.0,NNE,4.6,-,N/A,,Mostly Cloudy,30,2013-01-04 14:56:00
9:56 AM,46.0,27.0,47,30.38,10.0,Variable,6.9,-,N/A,,Mostly Cloudy,0,2013-01-04 15:56:00
10:56 AM,48.0,28.0,46,30.38,10.0,North,6.9,-,N/A,,Mostly Cloudy,360,2013-01-04 16:56:00
11:56 AM,51.1,26.1,38,30.35,10.0,North,11.5,-,N/A,,Mostly Cloudy,10,2013-01-04 17:56:00
12:56 PM,55.9,28.0,34,30.32,10.0,NNE,11.5,-,N/A,,Mostly Cloudy,20,2013-01-04 18:56:00
1:56 PM,57.9,26.1,30,30.30,10.0,NNE,8.1,-,N/A,,Mostly Cloudy,20,2013-01-04 19:56:00
2:56 PM,57.9,26.1,30,30.29,10.0,North,6.9,-,N/A,,Mostly Cloudy,10,2013-01-04 20:56:00
3:56 PM,55.9,28.0,34,30.30,10.0,Variable,3.5,-,N/A,,Mostly Cloudy,0,2013-01-04 21:56:00
4:56 PM,51.1,32.0,48,30.31,10.0,Calm,Calm,-,N/A,,Mostly Cloudy,0,2013-01-04 22:56:00
5:56 PM,46.9,37.0,68,30.33,10.0,Calm,Calm,-,N/A,,Mostly Cloudy,0,2013-01-04 23:56:00
6:56 PM,44.1,34.0,68,30.35,10.0,Calm,Calm,-,N/A,,Mostly Cloudy,0,2013-01-05 00:56:00
7:56 PM,44.1,30.9,60,30.36,10.0,Calm,Calm,-,N/A,,Mostly Cloudy,0,2013-01-05 01:56:00
8:56 PM,43.0,36.0,76,30.35,10.0,Calm,Calm,-,N/A,,Mostly Cloudy,0,2013-01-05 02:56:00
9:56 PM,43.0,35.1,74,30.35,10.0,NNW,3.5,-,N/A,,Mostly Cloudy,340,2013-01-05 03:56:00
10:41 PM,42.8,32.0,66,30.36,10.0,North,4.6,-,N/A,,Mostly Cloudy,360,2013-01-05 04:41:00
10:56 PM,44.1,30.9,60,30.33,10.0,North,4.6,-,N/A,,Clear,360,2013-01-05 04:56:00
11:56 PM,43.0,32.0,65,30.32,10.0,North,4.6,-,N/A,,Clear,350,2013-01-05 05:56:00